Tiempo atmosférico en la estación meteorológica de Oliva, València/Valencia (5 m.)



Fecha
DESCASC
Temp. máxima en grados centígrados (hora)
DESCASC
Temp. mínima en grados centígrados (hora)
DESCASC
Temp. media en grados centígrados
DESCASC
Racha de viento máxima en m/sg (hora)
DESCASC
Velocidad máxima media en intervalos de 10 minutos(hora)
DESCASC
Precipitaciones diarias en mm
DESCASC
Precipitaciones de 00:00 a 06:00 en mm
DESCASC
Precipitaciones de 06:00 a 12:00 en mm
DESCASC
Precipitaciones de 12:00 a 18:00 en mm
DESCASC
Precipitaciones de 18:00 a 24:00 en mm
DESCASC
22-08-2019 -- (--) -- (--) -- -- (--) -- (--) -- -- -- -- --
21-08-2019 -- (--) -- (--) -- -- (--) -- (--) -- -- -- -- --
20-08-2019 30.3 (14:50) 23.3 (06:40) 26.8 14.72 (17:00) 8.89 (18:00) 0 0 0 0 0
19-08-2019 30.2 (14:30) 22.5 (05:20) 26.4 5.28 (10:10) 3.33 (11:50) 0 0 0 0 0
18-08-2019 36.8 (18:30) 22.5 (00:00) 29.6 9.44 (19:10) 5 (18:00) 0 0 0 0 0
17-08-2019 35.7 (19:10) 21.5 (00:00) 28.6 9.44 (21:50) 4.17 (21:30) 0 0 0 0 0
16-08-2019 33.5 (18:00) 21.9 (00:00) 27.7 11.39 (15:50) 6.11 (15:30) 0 0 0 0 0
15-08-2019 33.2 (18:20) 22.9 (00:00) 28.1 8.61 (17:10) 4.17 (17:20) 0 0 0 0 0
14-08-2019 32.8 (18:20) 20.5 (00:00) 26.6 8.33 (16:30) 5 (17:30) 0 0 0 0 0
13-08-2019 28 (19:20) 22.7 (00:00) 25.4 8.61 (18:50) 4.44 (18:50) 10.2 0 9.5 0.7 0
12-08-2019 27.9 (11:00) 23.9 (00:00) 25.9 8.89 (09:40) 4.44 (09:30) 0 0 0 0 0
11-08-2019 33.1 (17:10) 26.6 (00:00) 29.8 9.17 (17:40) 4.72 (16:10) 0 0 0 0 0
10-08-2019 32.3 (12:10) 26.5 (00:00) 29.4 7.78 (01:30) 3.33 (12:30) 0 0 0 0 0
09-08-2019 35.7 (17:50) 21 (00:00) 28.4 7.78 (00:10) 3.89 (16:10) 0 0 0 0 0
08-08-2019 36.1 (19:00) 23.2 (00:00) 29.6 8.33 (17:30) 4.72 (17:30) 0 0 0 0 0
07-08-2019 31.4 (18:20) 22.9 (00:00) 27.1 7.22 (16:40) 3.33 (16:40) 0 0 0 0 0
06-08-2019 33.1 (19:30) 25.5 (00:00) 29.3 7.78 (21:20) 3.61 (23:00) 0 0 0 0 0
05-08-2019 29.1 (17:30) 23.2 (00:00) 26.2 7.78 (20:00) 4.17 (20:10) 0 0 0 0 0
04-08-2019 30.8 (16:30) 21.6 (00:00) 26.2 10 (19:50) 4.72 (19:00) 0 0 0 0 0
03-08-2019 29.3 (19:40) 22 (00:00) 25.6 10.28 (16:50) 5.28 (17:00) 0 0 0 0 0
02-08-2019 28.5 (12:50) 20.8 (00:00) 24.6 4.72 (13:10) 2.78 (15:00) 0 0 0 0 0
01-08-2019 28.2 (13:50) 22.9 (00:00) 25.6 5.83 (11:10) 3.61 (11:20) 0 0 0 0 0
31-07-2019 28.6 (14:40) 23.5 (00:00) 26.1 8.06 (16:00) 3.89 (16:10) 0 0 0 0 0
30-07-2019 29.1 (12:50) 22.1 (00:00) 25.6 10 (11:20) 5 (13:00) 0 0 0 0 0
29-07-2019 -- (--) -- (--) -- -- (--) -- (--) -- -- 0 -- --
28-07-2019 -- (--) -- (--) -- -- (--) -- (--) -- 0 -- 0 --
27-07-2019 36.3 (16:20) 21.4 (00:00) 28.8 17.22 (15:00) 5.83 (17:40) 0 0 0 0 0
26-07-2019 30.8 (17:20) 20.6 (00:00) 25.7 5.83 (00:10) 3.33 (20:00) 0 0 0 0 0

Gráficas

Temp. máximas Temp. mínimas Temp. medias Precipitaciones Rachas de viento máximas Velocidades máximas media en intervalos de 10 minutos

Datos horarios

Fecha y hora oficial Temperatura (ºC) Velocidad del viento (km/h) Dirección del viento Racha (km/h) Dirección de racha Precipitación (mm) Presión (hPa) Tendencia (hPa) Humedad (%)
2019-08-24 23:00:00 -- 5 Sudeste 10 Sudeste 0 -- -- --
2019-08-24 22:00:00 -- -- -- 14 Sudeste 0 -- -- --
2019-08-24 21:00:00 26.5 6 Sudeste 14 Este 0 -- -- --
2019-08-24 20:00:00 26.7 6 Sudeste 14 Este 0 -- -- --
2019-08-24 19:00:00 27 9 Este 17 Sudeste 0 -- -- --
2019-08-24 18:00:00 27.4 10 Este 17 Este 0 -- -- --
2019-08-24 17:00:00 27.8 9 Este 17 Este 0 -- -- --
2019-08-24 16:00:00 27.9 7 Este 17 Este 0 -- -- --
2019-08-24 15:00:00 27.6 8 Este 15 Nordeste 0 -- -- --
2019-08-24 14:00:00 27 9 Nordeste 15 Nordeste 0 -- -- --
2019-08-24 13:00:00 26.8 10 Nordeste 25 Nordeste 0 -- -- --
2019-08-24 12:00:00 26.9 6 Nordeste 12 Nordeste 0 -- -- --
2019-08-24 11:00:00 26.1 7 Norte 12 Noroeste 0 -- -- --
2019-08-24 10:00:00 25.6 5 Noroeste 10 Noroeste 0 -- -- --
2019-08-24 09:00:00 23.1 3 Oeste 9 Oeste 0 -- -- --
2019-08-24 08:00:00 20.4 3 Oeste 8 Noroeste 0 -- -- --
2019-08-24 07:00:00 20.2 5 Oeste 8 Noroeste 0 -- -- --
2019-08-24 06:00:00 20.1 4 Oeste 9 Oeste 0 -- -- --
2019-08-24 05:00:00 20 3 Oeste 6 Noroeste 0 -- -- --
2019-08-24 04:00:00 20.1 0 Calma 6 Oeste 0 -- -- --
2019-08-24 03:00:00 20.5 0 Calma 0 Calma 0 -- -- --
2019-08-24 02:00:00 20.9 0 Calma 6 Oeste 0 -- -- --
2019-08-24 01:00:00 21.3 2 Oeste 6 Oeste 0 -- -- --
2019-08-24 00:00:00 21.8 3 Oeste 5 Oeste 0 -- -- --
2019-08-23 23:00:00 23.1 0 Calma -- -- 0 -- -- --
2019-08-23 22:00:00 24.9 0 Calma 9 Este 0 -- -- --
2019-08-23 21:00:00 26.2 4 Sudeste 11 Sudeste 0 -- -- --
2019-08-23 20:00:00 26.6 6 Sudeste 17 Este 0 -- -- --
2019-08-23 19:00:00 27.1 8 Este 17 Este 0 -- -- --
2019-08-23 18:00:00 27.4 10 Este 20 Este 0 -- -- --
2019-08-23 17:00:00 27.7 11 Este 18 Este 0 -- -- --
2019-08-23 16:00:00 27.3 10 Este 18 Sudeste 0 -- -- --
2019-08-23 15:00:00 27.1 10 Este 41 Este 0 -- -- --
2019-08-23 14:00:00 27.6 7 Este 13 Nordeste 0 -- -- --
2019-08-23 13:00:00 26.8 7 Nordeste 14 Nordeste 0 -- -- --
2019-08-23 12:00:00 27.1 6 Nordeste 12 Nordeste 0 -- -- --
2019-08-23 11:00:00 26.6 3 Norte 10 Noroeste 0 -- -- --
2019-08-23 10:00:00 24.8 6 Noroeste 13 Noroeste 0 -- -- --
2019-08-23 09:00:00 -- 5 Noroeste 10 Noroeste 0 -- -- --
2019-08-23 08:00:00 -- 3 Oeste 10 Oeste 0 -- -- --
2019-08-23 07:00:00 -- 5 Oeste 10 Noroeste 0 -- -- --
2019-08-23 06:00:00 -- 5 Oeste 13 Oeste 0 -- -- --
2019-08-23 05:00:00 -- 5 Noroeste 9 Noroeste 0 -- -- --
2019-08-23 04:00:00 -- 3 Oeste 8 Oeste 0 -- -- --
2019-08-23 03:00:00 -- 0 Calma 6 Oeste 0 -- -- --
2019-08-23 02:00:00 -- 0 Calma 5 Noroeste 0 -- -- --
2019-08-23 01:00:00 -- 2 Oeste 6 Noroeste 0 -- -- --
2019-08-23 00:00:00 -- 2 Oeste 5 Sur 0 -- -- --
2019-08-22 23:00:00 -- 0 Calma 13 Este 0 -- -- --
2019-08-22 22:00:00 -- 6 Este 16 Sudeste 0 -- -- --
2019-08-22 21:00:00 -- 9 Sudeste 17 Este 0 -- -- --
2019-08-22 20:00:00 -- 10 Este 18 Sudeste 0 -- -- --
2019-08-22 19:00:00 -- -- -- 17 Este 0 -- -- --
2019-08-22 18:00:00 -- -- -- 18 Este 0 -- -- --
2019-08-22 17:00:00 -- -- -- 17 Este 0 -- -- --
2019-08-22 16:00:00 -- -- -- 17 Nordeste 0 -- -- --
2019-08-22 15:00:00 -- -- -- 16 Nordeste 0 -- -- --
2019-08-22 14:00:00 -- -- -- 14 Nordeste 0 -- -- --
2019-08-22 13:00:00 -- -- -- 17 Norte 0 -- -- --
2019-08-22 12:00:00 -- -- -- -- -- -- -- -- --
2019-08-22 11:00:00 -- -- -- -- -- -- -- -- --
2019-08-22 10:00:00 -- -- -- -- -- -- -- -- --
2019-08-22 09:00:00 -- -- -- -- -- -- -- -- --
2019-08-22 08:00:00 -- -- -- -- -- -- -- -- --
2019-08-22 07:00:00 -- -- -- -- -- -- -- -- --
2019-08-22 06:00:00 -- -- -- -- -- -- -- -- --
2019-08-22 05:00:00 -- -- -- -- -- -- -- -- --
2019-08-22 04:00:00 -- -- -- -- -- -- -- -- --
2019-08-22 03:00:00 -- -- -- -- -- -- -- -- --
2019-08-22 02:00:00 -- -- -- -- -- -- -- -- --
2019-08-22 01:00:00 -- -- -- -- -- -- -- -- --
2019-08-22 00:00:00 -- -- -- -- -- -- -- -- --
2019-08-21 23:00:00 -- -- -- -- -- -- -- -- --
2019-08-21 22:00:00 -- -- -- -- -- -- -- -- --
2019-08-21 21:00:00 -- -- -- -- -- -- -- -- --
2019-08-21 20:00:00 -- -- -- -- -- -- -- -- --
2019-08-21 19:00:00 -- -- -- -- -- -- -- -- --
2019-08-21 18:00:00 -- -- -- -- -- -- -- -- --
2019-08-21 17:00:00 -- -- -- -- -- -- -- -- --
2019-08-21 16:00:00 -- -- -- -- -- -- -- -- --
2019-08-21 15:00:00 -- -- -- -- -- -- -- -- --
2019-08-21 14:00:00 -- -- -- -- -- -- -- -- --
2019-08-21 13:00:00 -- -- -- -- -- -- -- -- --
2019-08-21 12:00:00 -- -- -- -- -- -- -- -- --
2019-08-21 11:00:00 -- -- -- -- -- -- -- -- --
2019-08-21 10:00:00 -- -- -- -- -- -- -- -- --
2019-08-21 09:00:00 -- -- -- -- -- -- -- -- --
2019-08-21 08:00:00 -- -- -- -- -- -- -- -- --
2019-08-21 07:00:00 -- -- -- -- -- -- -- -- --
2019-08-21 06:00:00 -- -- -- -- -- -- -- -- --
2019-08-21 05:00:00 -- -- -- -- -- -- -- -- --
2019-08-21 04:00:00 23.8 19 Nordeste 39 Este 5.3 -- -- --
2019-08-21 03:00:00 23.3 13 Este 34 Sudeste 32.3 -- -- --
2019-08-21 02:00:00 24.8 15 Este 43 Nordeste 0 -- -- --
2019-08-21 01:00:00 25.8 22 Nordeste 37 Nordeste 0 -- -- --
2019-08-21 00:00:00 25.9 21 Nordeste 33 Nordeste 0 -- -- --
2019-08-20 23:00:00 25.9 18 Nordeste 31 Nordeste 0 -- -- --
2019-08-20 22:00:00 25.8 20 Nordeste 41 Nordeste 0 -- -- --
2019-08-20 21:00:00 25.6 20 Nordeste 39 Nordeste 0 -- -- --
2019-08-20 20:00:00 25.9 26 Nordeste 45 Nordeste 0 -- -- --
2019-08-20 19:00:00 25.9 27 Nordeste 45 Nordeste 0 -- -- --
2019-08-20 18:00:00 25 32 Nordeste 52 Nordeste 0 -- -- --
2019-08-20 17:00:00 25 28 Nordeste 53 Nordeste 0 -- -- --
2019-08-20 16:00:00 25.7 20 Nordeste 46 Nordeste 0 -- -- --
2019-08-20 15:00:00 27.7 19 Nordeste 40 Nordeste 0 -- -- --
2019-08-20 14:00:00 29.4 10 Nordeste 19 Nordeste 0 -- -- --
2019-08-20 13:00:00 29.5 8 Nordeste 17 Norte 0 -- -- --
2019-08-20 12:00:00 28.8 9 Nordeste 17 Nordeste 0 -- -- --
2019-08-20 11:00:00 28.7 6 Norte 17 Oeste 0 -- -- --
2019-08-20 10:00:00 27.9 9 Noroeste 14 Noroeste 0 -- -- --
2019-08-20 09:00:00 25.4 2 Oeste 8 Noroeste 0 -- -- --
2019-08-20 08:00:00 24.4 4 Oeste 11 Oeste 0 -- -- --
2019-08-20 07:00:00 23.7 0 Calma 5 Oeste 0 -- -- --
2019-08-20 06:00:00 23.4 3 Oeste 7 Oeste 0 -- -- --
2019-08-20 05:00:00 23.9 0 Calma 6 Noroeste 0 -- -- --
2019-08-20 04:00:00 24.1 4 Oeste 7 Oeste 0 -- -- --
2019-08-20 03:00:00 24.6 4 Noroeste 7 Noroeste 0 -- -- --
2019-08-20 02:00:00 24.5 4 Oeste 7 Oeste 0 -- -- --
2019-08-20 01:00:00 25.1 3 Oeste 12 Norte 0 -- -- --
2019-08-20 00:00:00 26.3 5 Norte 17 Norte 0 -- -- --
2019-08-19 23:00:00 25.8 2 Noroeste 8 Norte 0 -- -- --
2019-08-19 22:00:00 26.7 3 Norte 7 Norte 0 -- -- --
2019-08-19 21:00:00 27 4 Nordeste 10 Nordeste 0 -- -- --
2019-08-19 20:00:00 27.5 6 Este 16 Nordeste 0 -- -- --
2019-08-19 19:00:00 28 9 Nordeste 16 Nordeste 0 -- -- --
2019-08-19 18:00:00 28.6 9 Nordeste 14 Este 0 -- -- --
2019-08-19 17:00:00 28.7 8 Nordeste 15 Nordeste 0 -- -- --
2019-08-19 16:00:00 28.7 9 Nordeste 17 Este 0 -- -- --
2019-08-19 15:00:00 29.3 8 Nordeste 14 Norte 0 -- -- --
2019-08-19 14:00:00 28.9 9 Norte 14 Norte 0 -- -- --
2019-08-19 13:00:00 29 8 Norte 18 Norte 0 -- -- --
2019-08-19 12:00:00 28.1 12 Norte 19 Norte 0 -- -- --
2019-08-19 11:00:00 28.2 10 Norte 19 Norte 0 -- -- --
2019-08-19 10:00:00 27.4 9 Noroeste 19 Norte 0 -- -- --
2019-08-19 09:00:00 25.6 7 Noroeste 13 Noroeste 0 -- -- --
2019-08-19 08:00:00 24 6 Noroeste 12 Noroeste 0 -- -- --
2019-08-19 07:00:00 23.4 6 Oeste 14 Oeste 0 -- -- --
2019-08-19 06:00:00 23.1 5 Oeste 9 Noroeste 0 -- -- --
2019-08-19 05:00:00 22.9 2 Oeste 7 Noroeste 0 -- -- --
2019-08-19 04:00:00 23.8 0 Calma 4 Sur 0 -- -- --
2019-08-19 03:00:00 24.5 0 Calma 5 Sur 0 -- -- --
2019-08-19 02:00:00 25.3 0 Calma 10 Sur 0 -- -- --
2019-08-19 01:00:00 26.3 3 Oeste 16 Noroeste 0 -- -- --
2019-08-19 00:00:00 27.3 5 Noroeste 18 Norte 0 -- -- --
2019-08-18 23:00:00 27.8 8 Norte 27 Noroeste 0 -- -- --
2019-08-18 22:00:00 30.1 6 Sur 11 Sudeste 0 -- -- --
2019-08-18 21:00:00 32.6 5 Sudeste 25 Sur 0 -- -- --
2019-08-18 20:00:00 35.2 13 Sur 34 Sur 0 -- -- --
2019-08-18 19:00:00 36.4 17 Sur 31 Sur 0 -- -- --
2019-08-18 18:00:00 34.3 18 Sudeste 33 Sudeste 0 -- -- --
2019-08-18 17:00:00 34.1 13 Sudeste 27 Este 0 -- -- --
2019-08-18 16:00:00 30.7 14 Este 27 Este 0 -- -- --
2019-08-18 15:00:00 29.5 12 Este 23 Este 0 -- -- --
2019-08-18 14:00:00 28.9 14 Este 23 Este 0 -- -- --
2019-08-18 13:00:00 28.5 11 Este 17 Este 0 -- -- --
2019-08-18 12:00:00 28 8 Nordeste 13 Nordeste 0 -- -- --
2019-08-18 11:00:00 27.7 5 Este 9 Este 0 -- -- --
2019-08-18 10:00:00 27.3 4 Este 8 Sudeste 0 -- -- --
2019-08-18 09:00:00 26.1 0 Calma 4 Sudoeste 0 -- -- --
2019-08-18 08:00:00 22.9 2 Oeste 4 Oeste 0 -- -- --
2019-08-18 07:00:00 22.9 0 Calma 4 Oeste 0 -- -- --
2019-08-18 06:00:00 23.4 0 Calma 4 Noroeste 0 -- -- --
2019-08-18 05:00:00 23.8 0 Calma 4 Sur 0 -- -- --
2019-08-18 04:00:00 24.6 0 Calma 5 Oeste 0 -- -- --
2019-08-18 03:00:00 -- 0 Calma 6 Noroeste 0 -- -- --
2019-08-18 02:00:00 25.7 4 Noroeste 8 Noroeste 0 -- -- --
2019-08-18 01:00:00 25.6 4 Oeste 10 Noroeste 0 -- -- --
2019-08-18 00:00:00 26.3 6 Noroeste 20 Norte 0 -- -- --
2019-08-17 23:00:00 27.1 9 Noroeste 31 Norte 0 -- -- --
2019-08-17 22:00:00 27.5 13 Norte 34 Norte 0 -- -- --
2019-08-17 21:00:00 29.9 6 Oeste 19 Sur 0 -- -- --
2019-08-17 20:00:00 34.4 12 Sudeste 24 Sudeste 0 -- -- --
2019-08-17 19:00:00 34.8 9 Sudeste 25 Sudeste 0 -- -- --
2019-08-17 18:00:00 33.7 11 Sudeste 22 Sudeste 0 -- -- --
2019-08-17 17:00:00 34.6 11 Sudeste 27 Sudeste 0 -- -- --
2019-08-17 16:00:00 33.1 5 Nordeste 13 Nordeste 0 -- -- --
2019-08-17 15:00:00 30.3 7 Nordeste 14 Este 0 -- -- --
2019-08-17 14:00:00 29.2 8 Este 16 Este 0 -- -- --
2019-08-17 13:00:00 28.2 8 Este 15 Este 0 -- -- --
2019-08-17 12:00:00 28.1 7 Este 16 Nordeste 0 -- -- --
2019-08-17 11:00:00 27.3 7 Nordeste 10 Nordeste 0 -- -- --
2019-08-17 10:00:00 27.1 3 Nordeste 6 Norte 0 -- -- --
2019-08-17 09:00:00 25 2 Noroeste 4 Noroeste 0 -- -- --
2019-08-17 08:00:00 22 0 Calma 6 Oeste 0 -- -- --
2019-08-17 07:00:00 21.5 4 Oeste 9 Oeste 0 -- -- --
2019-08-17 06:00:00 22.1 0 Calma 5 Sur 0 -- -- --
2019-08-17 05:00:00 22.6 0 Calma 3 Oeste 0 -- -- --
2019-08-17 04:00:00 23.2 0 Calma 5 Sur 0 -- -- --
2019-08-17 03:00:00 24.3 0 Calma 8 Noroeste 0 -- -- --
2019-08-17 02:00:00 24.6 4 Oeste 12 Oeste 0 -- -- --
2019-08-17 01:00:00 25.3 6 Noroeste 14 Noroeste 0 -- -- --
2019-08-17 00:00:00 26 6 Noroeste 18 Noroeste 0 -- -- --
2019-08-16 23:00:00 27.5 4 Noroeste 17 Nordeste 0 -- -- --
2019-08-16 22:00:00 28.5 9 Norte 19 Norte 0 -- -- --
2019-08-16 21:00:00 29.8 7 Sur 22 Sur 0 -- -- --
2019-08-16 20:00:00 31.6 12 Sudeste 31 Sur 0 -- -- --
2019-08-16 19:00:00 32.5 14 Sur 30 Sudeste 0 -- -- --
2019-08-16 18:00:00 33.4 12 Sudeste 29 Este 0 -- -- --
2019-08-16 17:00:00 30.6 17 Sudeste 37 Este 0 -- -- --
2019-08-16 16:00:00 28.9 22 Este 41 Este 0 -- -- --
2019-08-16 15:00:00 28.6 21 Este 38 Este 0 -- -- --
2019-08-16 14:00:00 28.8 10 Este 22 Este 0 -- -- --
2019-08-16 13:00:00 28.6 9 Este 19 Este 0 -- -- --
2019-08-16 12:00:00 28 9 Este 29 Nordeste 0 -- -- --
2019-08-16 11:00:00 27.7 6 Este 12 Este 0 -- -- --
2019-08-16 10:00:00 27.5 5 Este 8 Nordeste 0 -- -- --
2019-08-16 09:00:00 25.3 0 Calma 3 Sur 0 -- -- --
2019-08-16 08:00:00 22.5 0 Calma 5 Sur 0 -- -- --
2019-08-16 07:00:00 22.1 0 Calma 5 Sur 0 -- -- --
2019-08-16 06:00:00 22.8 2 Sur 6 Sudoeste 0 -- -- --
2019-08-16 05:00:00 23.4 3 Sur 5 Sur 0 -- -- --
2019-08-16 04:00:00 23.6 3 Oeste 6 Oeste 0 -- -- --
2019-08-16 03:00:00 24.1 4 Oeste 10 Noroeste 0 -- -- --
2019-08-16 02:00:00 24.7 5 Oeste 19 Oeste 0 -- -- --
2019-08-16 01:00:00 25.7 4 Oeste 18 Oeste 0 -- -- --
2019-08-16 00:00:00 26.1 6 Oeste 22 Oeste 0 -- -- --
2019-08-15 23:00:00 26.7 9 Noroeste 19 Noroeste 0 -- -- --
2019-08-15 22:00:00 28 10 Noroeste 24 Noroeste 0 -- -- --
2019-08-15 21:00:00 30.2 8 Sur 24 Sudeste 0 -- -- --
2019-08-15 20:00:00 31.7 11 Sudeste 25 Sur 0 -- -- --
2019-08-15 19:00:00 32.4 14 Sur 29 Sur 0 -- -- --
2019-08-15 18:00:00 32 15 Sudeste 31 Sudeste 0 -- -- --
2019-08-15 17:00:00 32.5 15 Sudeste 29 Sudeste 0 -- -- --
2019-08-15 16:00:00 32.2 12 Sudeste 24 Este 0 -- -- --
2019-08-15 15:00:00 31.2 6 Este 19 Nordeste 0 -- -- --
2019-08-15 14:00:00 28.3 12 Nordeste 19 Nordeste 0 -- -- --
2019-08-15 13:00:00 27.9 12 Nordeste 18 Nordeste 0 -- -- --
2019-08-15 12:00:00 28.2 9 Nordeste 14 Nordeste 0 -- -- --
2019-08-15 11:00:00 27.5 6 Este 10 Este 0 -- -- --
2019-08-15 10:00:00 26.9 4 Nordeste 6 Este 0 -- -- --
2019-08-15 09:00:00 24.9 0 Calma 5 Noroeste 0 -- -- --
2019-08-15 08:00:00 23.4 0 Calma 6 Sur 0 -- -- --
2019-08-15 07:00:00 23.1 2 Sur 4 Sur 0 -- -- --
2019-08-15 06:00:00 23.2 2 Oeste 6 Oeste 0 -- -- --
2019-08-15 05:00:00 23.5 2 Oeste 5 Noroeste 0 -- -- --
2019-08-15 04:00:00 24.3 0 Calma 4 Sur 0 -- -- --
2019-08-15 03:00:00 24.7 3 Sur 7 Sur 0 -- -- --
2019-08-15 02:00:00 25.4 0 Calma 18 Noroeste 0 -- -- --
2019-08-15 01:00:00 27 6 Noroeste 15 Norte 0 -- -- --
2019-08-15 00:00:00 27.3 3 Noroeste 15 Norte 0 -- -- --
2019-08-14 23:00:00 26.9 3 Sudoeste 12 Sur 0 -- -- --
2019-08-14 22:00:00 28.3 5 Sur 15 Sur 0 -- -- --
2019-08-14 21:00:00 29.7 9 Sur 22 Sur 0 -- -- --
2019-08-14 20:00:00 31.6 11 Sur 24 Sur 0 -- -- --
2019-08-14 19:00:00 32.3 13 Sur 27 Sudeste 0 -- -- --
2019-08-14 18:00:00 32 15 Sudeste 30 Sudeste 0 -- -- --
2019-08-14 17:00:00 31.9 14 Sudeste 30 Este 0 -- -- --
2019-08-14 16:00:00 31.9 14 Sudeste 30 Sudeste 0 -- -- --
2019-08-14 15:00:00 32.2 10 Sudeste 23 Este 0 -- -- --
2019-08-14 14:00:00 30.5 8 Este 18 Nordeste 0 -- -- --
2019-08-14 13:00:00 28 12 Nordeste 19 Nordeste 0 -- -- --
2019-08-14 12:00:00 27.6 8 Este 15 Este 0 -- -- --
2019-08-14 11:00:00 26.7 8 Este 14 Este 0 -- -- --
2019-08-14 10:00:00 26.1 5 Este 15 Sur 0 -- -- --
2019-08-14 09:00:00 24.3 0 Calma -- -- 0 -- -- --
2019-08-14 08:00:00 20.7 0 Calma -- -- 0 -- -- --
2019-08-14 07:00:00 20.8 0 Calma -- -- -- -- -- --
2019-08-14 06:00:00 21 3 Oeste 7 Noroeste 0 -- -- --
2019-08-14 05:00:00 21.4 0 Calma 5 Oeste 0 -- -- --
2019-08-14 04:00:00 21.7 3 Oeste 7 Oeste 0 -- -- --
2019-08-14 03:00:00 22.1 0 Calma 4 Sudoeste 0 -- -- --
2019-08-14 02:00:00 22.4 0 Calma 6 Sur 0 -- -- --
2019-08-14 01:00:00 22.8 0 Calma 7 Sudeste 0 -- -- --
2019-08-14 00:00:00 23.9 3 Sur 13 Sudeste 0 -- -- --
2019-08-13 23:00:00 25.3 7 Sudeste 18 Sudeste 0 -- -- --
2019-08-13 22:00:00 25.6 9 Sudeste 24 Sudeste 0 -- -- --
2019-08-13 21:00:00 26.1 14 Sudeste 28 Sur 0 -- -- --
2019-08-13 20:00:00 27 15 Sudeste 28 Sudeste 0 -- -- --
2019-08-13 19:00:00 27.5 14 Sudeste 31 Este 0 -- -- --
2019-08-13 18:00:00 27 13 Este 24 Este 0 -- -- --
2019-08-13 17:00:00 26.8 12 Este 23 Este 0 -- -- --
2019-08-13 16:00:00 27 12 Este 22 Este 0 -- -- --
2019-08-13 15:00:00 27.2 13 Este 26 Este 0 -- -- --
2019-08-13 14:00:00 26.6 13 Este 26 Este 0 -- -- --
2019-08-13 13:00:00 25.6 0 Calma 12 Sur 0.7 -- -- --
2019-08-13 12:00:00 23.5 2 Norte 22 Nordeste 2.2 -- -- --
2019-08-13 11:00:00 24.9 8 Este 27 Este 0 -- -- --
2019-08-13 10:00:00 25.2 12 Este -- -- -- -- -- --
2019-08-13 09:00:00 25.1 11 Este 23 Este 0 -- -- --
2019-08-13 08:00:00 24.5 6 Este 24 Este 7.3 -- -- --
2019-08-13 07:00:00 25.6 11 Este 22 Este 0 -- -- --
2019-08-13 06:00:00 25.8 13 Nordeste 24 Nordeste 0 -- -- --
2019-08-13 05:00:00 25.7 13 Nordeste 25 Nordeste 0 -- -- --
2019-08-13 04:00:00 23.9 4 Norte 13 Nordeste 0 -- -- --
2019-08-13 03:00:00 23.7 6 Noroeste 13 Norte 0 -- -- --
2019-08-13 02:00:00 25.3 7 Norte 14 Norte 0 -- -- --
2019-08-13 01:00:00 25.3 5 Nordeste 10 Nordeste 0 -- -- --
2019-08-13 00:00:00 25.6 3 Nordeste 10 Nordeste 0 -- -- --
2019-08-12 23:00:00 25.9 5 Este 15 Nordeste 0 -- -- --
2019-08-12 22:00:00 26 8 Nordeste 14 Nordeste 0 -- -- --
2019-08-12 21:00:00 26.2 6 Este 18 Nordeste 0 -- -- --
2019-08-12 20:00:00 26.4 10 Este 23 Nordeste 0 -- -- --
2019-08-12 19:00:00 26.4 8 Este 20 Este 0 -- -- --
2019-08-12 18:00:00 26.3 12 Nordeste 21 Nordeste 0 -- -- --
2019-08-12 17:00:00 26.4 10 Nordeste 21 Nordeste 0 -- -- --
2019-08-12 16:00:00 26.4 13 Nordeste 20 Nordeste 0 -- -- --
2019-08-12 15:00:00 27.3 11 Nordeste 21 Nordeste 0 -- -- --
2019-08-12 14:00:00 27.1 9 Nordeste 22 Norte 0 -- -- --
2019-08-12 13:00:00 27.2 12 Nordeste 26 Norte 0 -- -- --
2019-08-12 12:00:00 26.8 12 Nordeste 27 Norte 0 -- -- --
2019-08-12 11:00:00 27.4 14 Norte 28 Norte 0 -- -- --
2019-08-12 10:00:00 27.1 14 Nordeste 32 Norte 0 -- -- --
2019-08-12 09:00:00 26.9 13 Norte 26 Norte 0 -- -- --
2019-08-12 08:00:00 24.5 7 Oeste 12 Noroeste 0 -- -- --
2019-08-12 07:00:00 24 5 Oeste 9 Noroeste 0 -- -- --
2019-08-12 06:00:00 24.5 6 Oeste 13 Noroeste 0 -- -- --
2019-08-12 05:00:00 25.6 8 Noroeste 15 Noroeste 0 -- -- --
2019-08-12 04:00:00 25.5 8 Noroeste 17 Noroeste 0 -- -- --
2019-08-12 03:00:00 26.1 8 Noroeste 19 Norte 0 -- -- --
2019-08-12 02:00:00 27 10 Noroeste 27 Norte 0 -- -- --
2019-08-12 01:00:00 27.2 10 Noroeste 25 Noroeste 0 -- -- --
2019-08-12 00:00:00 27.4 11 Noroeste 22 Norte 0 -- -- --
2019-08-11 23:00:00 28.4 8 Noroeste 18 Noroeste 0 -- -- --
2019-08-11 22:00:00 29.7 4 Sudeste 8 Sur 0 -- -- --
2019-08-11 21:00:00 30.3 9 Sudeste 18 Sudeste 0 -- -- --
2019-08-11 20:00:00 31.1 9 Sudeste 23 Sur 0 -- -- --
2019-08-11 19:00:00 32 11 Sudeste 26 Sudeste 0 -- -- --
2019-08-11 18:00:00 32.5 13 Sudeste 33 Sudeste 0 -- -- --
2019-08-11 17:00:00 32.9 11 Sudeste 29 Este 0 -- -- --
2019-08-11 16:00:00 29.8 15 Este 29 Este 0 -- -- --
2019-08-11 15:00:00 29.4 11 Este 19 Este 0 -- -- --
2019-08-11 14:00:00 29 8 Este 15 Este 0 -- -- --
2019-08-11 13:00:00 28.9 9 Nordeste 14 Nordeste 0 -- -- --
2019-08-11 12:00:00 29.1 6 Nordeste 16 Norte 0 -- -- --
2019-08-11 11:00:00 28.8 9 Norte 16 Norte 0 -- -- --
2019-08-11 10:00:00 27.6 4 Norte 10 Noroeste 0 -- -- --
2019-08-11 09:00:00 26.9 4 Noroeste 16 Norte 0 -- -- --
2019-08-11 08:00:00 26.6 9 Norte 18 Norte 0 -- -- --
2019-08-11 07:00:00 26.7 8 Norte 15 Norte 0 -- -- --
2019-08-11 06:00:00 26.8 6 Norte 13 Nordeste 0 -- -- --
2019-08-11 05:00:00 26.7 6 Norte 14 Nordeste 0 -- -- --
2019-08-11 04:00:00 26.9 4 Nordeste 12 Norte 0 -- -- --
2019-08-11 03:00:00 27.1 5 Noroeste 12 Norte 0 -- -- --
2019-08-11 02:00:00 26.9 7 Norte 13 Nordeste 0 -- -- --
2019-08-11 01:00:00 27.2 6 Norte 12 Nordeste 0 -- -- --
2019-08-11 00:00:00 27.1 5 Norte 9 Norte 0 -- -- --
2019-08-10 23:00:00 27.5 4 Nordeste 9 Norte 0 -- -- --
2019-08-10 22:00:00 27.6 4 Nordeste 9 Nordeste 0 -- -- --
2019-08-10 21:00:00 28 6 Nordeste 9 Nordeste 0 -- -- --
2019-08-10 20:00:00 28.6 4 Este 15 Sudeste 0 -- -- --
2019-08-10 19:00:00 28.9 8 Este 15 Este 0 -- -- --
2019-08-10 18:00:00 29.3 8 Este 14 Este 0 -- -- --
2019-08-10 17:00:00 29.4 6 Este 12 Este 0 -- -- --
2019-08-10 16:00:00 29.4 6 Este 12 Nordeste 0 -- -- --
2019-08-10 15:00:00 31.2 6 Norte 12 Norte 0 -- -- --
2019-08-10 14:00:00 30.5 3 Nordeste 14 Este 0 -- -- --
2019-08-10 13:00:00 31.2 9 Nordeste 19 Nordeste 0 -- -- --
2019-08-10 12:00:00 31.8 6 Este 16 Nordeste 0 -- -- --
2019-08-10 11:00:00 30.1 9 Nordeste 14 Nordeste 0 -- -- --
2019-08-10 10:00:00 31.5 5 Nordeste 10 Noroeste 0 -- -- --
2019-08-10 09:00:00 29.5 6 Noroeste 10 Oeste 0 -- -- --
2019-08-10 08:00:00 27.6 4 Oeste 18 Norte 0 -- -- --
2019-08-10 07:00:00 29.8 11 Norte 21 Norte 0 -- -- --
2019-08-10 06:00:00 29.6 9 Oeste 23 Oeste 0 -- -- --
2019-08-10 05:00:00 29.9 10 Oeste 20 Oeste 0 -- -- --
2019-08-10 04:00:00 30.3 8 Oeste 19 Oeste 0 -- -- --
2019-08-10 03:00:00 29.4 8 Oeste 13 Oeste 0 -- -- --
2019-08-10 02:00:00 29.3 9 Oeste 28 Oeste 0 -- -- --
2019-08-10 01:00:00 26.5 3 Oeste 9 Noroeste 0 -- -- --
2019-08-10 00:00:00 27.6 3 Oeste 6 Oeste 0 -- -- --
2019-08-09 23:00:00 28.5 2 Oeste 5 Noroeste 0 -- -- --
2019-08-09 22:00:00 29.8 0 Calma 4 Norte 0 -- -- --
2019-08-09 21:00:00 32 0 Calma 12 Sudeste 0 -- -- --
2019-08-09 20:00:00 34.3 9 Sudeste 18 Sudeste 0 -- -- --
2019-08-09 19:00:00 34.6 8 Sudeste 21 Sudeste 0 -- -- --
2019-08-09 18:00:00 34.2 9 Este 20 Este 0 -- -- --
2019-08-09 17:00:00 32.2 12 Este 26 Este 0 -- -- --
2019-08-09 16:00:00 33.2 13 Este 26 Este 0 -- -- --
2019-08-09 15:00:00 34.2 10 Sudeste 22 Sudeste 0 -- -- --
2019-08-09 14:00:00 33.8 9 Sudeste 21 Sur 0 -- -- --
2019-08-09 13:00:00 32 9 Este 18 Este 0 -- -- --
2019-08-09 12:00:00 30.2 10 Este 18 Este 0 -- -- --
2019-08-09 11:00:00 30.7 6 Sudeste 18 Oeste 0 -- -- --
2019-08-09 10:00:00 32.3 3 Norte 13 Noroeste 0 -- -- --
2019-08-09 09:00:00 26.8 2 Sur 8 Sur 0 -- -- --
2019-08-09 08:00:00 22.2 2 Sur 5 Sudeste 0 -- -- --
2019-08-09 07:00:00 21.3 0 Calma 7 Oeste 0 -- -- --
2019-08-09 06:00:00 22.4 3 Oeste 4 Oeste 0 -- -- --
2019-08-09 05:00:00 23.6 0 Calma 5 Sudoeste 0 -- -- --
2019-08-09 04:00:00 24.6 3 Sur 6 Sur 0 -- -- --
2019-08-09 03:00:00 25.6 0 Calma 5 Sur 0 -- -- --
2019-08-09 02:00:00 26.3 2 Oeste 17 Noroeste 0 -- -- --
2019-08-09 01:00:00 27 9 Noroeste 28 Norte 0 -- -- --
2019-08-09 00:00:00 27.8 13 Noroeste 26 Norte 0 -- -- --
2019-08-08 23:00:00 29.2 4 Norte 16 Norte 0 -- -- --
2019-08-08 22:00:00 30.9 2 Sur 16 Sur 0 -- -- --
2019-08-08 21:00:00 33.2 11 Sur 22 Sur 0 -- -- --
2019-08-08 20:00:00 35 10 Sudeste 23 Sudeste 0 -- -- --
2019-08-08 19:00:00 36.1 11 Sudeste 27 Sudeste 0 -- -- --
2019-08-08 18:00:00 34.2 11 Sudeste 30 Sudeste 0 -- -- --
2019-08-08 17:00:00 32.4 13 Este 26 Este 0 -- -- --
2019-08-08 16:00:00 32.2 12 Este 24 Este 0 -- -- --
2019-08-08 15:00:00 31.8 11 Este 23 Sudeste 0 -- -- --
2019-08-08 14:00:00 30.4 11 Sudeste 27 Este 0 -- -- --
2019-08-08 13:00:00 31.5 13 Este 24 Este 0 -- -- --
2019-08-08 12:00:00 33.8 7 Norte 16 Norte 0 -- -- --
2019-08-08 11:00:00 32.4 6 Norte 12 Norte 0 -- -- --
2019-08-08 10:00:00 31.3 6 Oeste 22 Oeste 0 -- -- --
2019-08-08 09:00:00 27.9 7 Oeste 15 Oeste 0 -- -- --
2019-08-08 08:00:00 24.3 2 Oeste 8 Noroeste 0 -- -- --
2019-08-08 07:00:00 23.2 0 Calma 7 Oeste 0 -- -- --
2019-08-08 06:00:00 23.7 4 Noroeste 7 Oeste 0 -- -- --
2019-08-08 05:00:00 24.2 2 Oeste 5 Noroeste 0 -- -- --
2019-08-08 04:00:00 25.1 0 Calma 8 Noroeste 0 -- -- --
2019-08-08 03:00:00 25.6 6 Noroeste 14 Norte 0 -- -- --
2019-08-08 02:00:00 26.2 4 Norte 8 Norte 0 -- -- --
2019-08-08 01:00:00 25.9 0 Calma 7 Norte 0 -- -- --
2019-08-08 00:00:00 26.1 4 Oeste 15 Norte 0 -- -- --
2019-08-07 23:00:00 26.8 8 Noroeste 21 Noroeste 0 -- -- --
2019-08-07 22:00:00 27.3 10 Norte 21 Norte 0 -- -- --
2019-08-07 21:00:00 28.3 7 Noroeste 16 Noroeste 0 -- -- --
2019-08-07 20:00:00 29.9 4 Noroeste 15 Este 0 -- -- --
2019-08-07 19:00:00 30.3 8 Este 15 Sudeste 0 -- -- --
2019-08-07 18:00:00 30.6 8 Sudeste 21 Sudeste 0 -- -- --
2019-08-07 17:00:00 29.5 10 Sudeste 26 Este 0 -- -- --
2019-08-07 16:00:00 29.8 10 Sudeste 21 Este 0 -- -- --
2019-08-07 15:00:00 29.8 10 Este 18 Este 0 -- -- --
2019-08-07 14:00:00 28.4 9 Sudeste 19 Sudeste 0 -- -- --
2019-08-07 13:00:00 28.7 7 Este 12 Este 0 -- -- --
2019-08-07 12:00:00 28.1 8 Nordeste 15 Nordeste 0 -- -- --
2019-08-07 11:00:00 28.3 6 Nordeste 11 Norte 0 -- -- --
2019-08-07 10:00:00 27 6 Norte 10 Nordeste 0 -- -- --
2019-08-07 09:00:00 25.3 0 Calma 4 Sur 0 -- -- --
2019-08-07 08:00:00 23.2 0 Calma 5 Oeste 0 -- -- --
2019-08-07 07:00:00 23.3 2 Oeste 5 Noroeste 0 -- -- --
2019-08-07 06:00:00 24.4 0 Calma 6 Sudoeste 0 -- -- --
2019-08-07 05:00:00 24.6 2 Sur 6 Sur 0 -- -- --
2019-08-07 04:00:00 24.7 0 Calma 7 Noroeste 0 -- -- --
2019-08-07 03:00:00 25.2 3 Noroeste 12 Noroeste 0 -- -- --
2019-08-07 02:00:00 25.9 7 Noroeste 15 Norte 0 -- -- --
2019-08-07 01:00:00 26.5 6 Noroeste 18 Noroeste 0 -- -- --
2019-08-07 00:00:00 26.9 9 Noroeste 24 Noroeste 0 -- -- --
2019-08-06 23:00:00 27.2 13 Noroeste 28 Norte 0 -- -- --
2019-08-06 22:00:00 27.6 9 Noroeste 28 Norte 0 -- -- --
2019-08-06 21:00:00 30.5 6 Sudeste 22 Sudeste 0 -- -- --
2019-08-06 20:00:00 32.1 8 Sudeste 20 Sudeste 0 -- -- --
2019-08-06 19:00:00 32.8 7 Sudeste 19 Este 0 -- -- --
2019-08-06 18:00:00 31.9 10 Este 18 Este 0 -- -- --
2019-08-06 17:00:00 30.6 7 Nordeste 14 Este 0 -- -- --
2019-08-06 16:00:00 30.9 7 Este 12 Este 0 -- -- --
2019-08-06 15:00:00 29.8 8 Nordeste 17 Este 0 -- -- --
2019-08-06 14:00:00 29.3 8 Este 19 Este 0 -- -- --
2019-08-06 13:00:00 29.4 8 Este 18 Este 0 -- -- --
2019-08-06 12:00:00 29.2 9 Este 17 Este 0 -- -- --
2019-08-06 11:00:00 28.6 6 Este 13 Este 0 -- -- --
2019-08-06 10:00:00 28.3 7 Sudeste 12 Sudeste 0 -- -- --
2019-08-06 09:00:00 26.8 2 Sur 5 Sudeste 0 -- -- --
2019-08-06 08:00:00 26 0 Calma 5 Sur 0 -- -- --
2019-08-06 07:00:00 26.1 2 Norte 10 Norte 0 -- -- --
2019-08-06 06:00:00 26.2 4 Norte 11 Norte 0 -- -- --
2019-08-06 05:00:00 26.2 3 Norte 7 Norte 0 -- -- --
2019-08-06 04:00:00 26.1 0 Calma 5 Oeste 0 -- -- --
2019-08-06 03:00:00 25.9 2 Oeste 9 Noroeste 0 -- -- --
2019-08-06 02:00:00 25.6 3 Noroeste 9 Noroeste 0 -- -- --
2019-08-06 01:00:00 25.9 4 Noroeste 9 Noroeste 0 -- -- --
2019-08-06 00:00:00 25.8 4 Noroeste 10 Nordeste 0 -- -- --
2019-08-05 23:00:00 27.2 5 Este 12 Este 0 -- -- --
2019-08-05 22:00:00 27.2 7 Este 22 Este 0 -- -- --
2019-08-05 21:00:00 27.4 13 Este 27 Este 0 -- -- --
2019-08-05 20:00:00 27.9 13 Este 28 Este 0 -- -- --
2019-08-05 19:00:00 28.2 11 Este 21 Este 0 -- -- --
2019-08-05 18:00:00 28.4 10 Este 18 Sudeste 0 -- -- --
2019-08-05 17:00:00 28.2 8 Este 14 Este 0 -- -- --
2019-08-05 16:00:00 28.6 9 Nordeste 16 Nordeste 0 -- -- --
2019-08-05 15:00:00 28.7 10 Nordeste 17 Nordeste 0 -- -- --
2019-08-05 14:00:00 28.6 9 Nordeste 15 Este 0 -- -- --
2019-08-05 13:00:00 28.2 8 Nordeste 15 Nordeste 0 -- -- --
2019-08-05 12:00:00 28.1 8 Nordeste 14 Nordeste 0 -- -- --
2019-08-05 11:00:00 27.5 5 Nordeste 10 Nordeste 0 -- -- --
2019-08-05 10:00:00 26.4 0 Calma 4 Oeste 0 -- -- --
2019-08-05 09:00:00 25.2 0 Calma 4 Oeste 0 -- -- --
2019-08-05 08:00:00 23.9 0 Calma 3 Noroeste 0 -- -- --
2019-08-05 07:00:00 23.3 0 Calma 4 Oeste 0 -- -- --
2019-08-05 06:00:00 23.5 3 Oeste 5 Oeste 0 -- -- --
2019-08-05 05:00:00 23.6 4 Noroeste 10 Noroeste 0 -- -- --
2019-08-05 04:00:00 24 6 Noroeste 10 Noroeste 0 -- -- --
2019-08-05 03:00:00 24.8 8 Oeste 15 Noroeste 0 -- -- --
2019-08-05 02:00:00 24.7 4 Oeste 17 Noroeste 0 -- -- --
2019-08-05 01:00:00 25.5 8 Noroeste 22 Noroeste 0 -- -- --
2019-08-05 00:00:00 26 11 Noroeste 19 Noroeste 0 -- -- --
2019-08-04 23:00:00 26.2 5 Noroeste 17 Sur 0 -- -- --
2019-08-04 22:00:00 27.9 10 Sudeste 26 Sudeste 0 -- -- --
2019-08-04 21:00:00 28.3 14 Sudeste 28 Sudeste 0 -- -- --
2019-08-04 20:00:00 29.6 15 Sudeste 36 Este 0 -- -- --
2019-08-04 19:00:00 30.3 17 Sudeste 34 Sudeste 0 -- -- --
2019-08-04 18:00:00 29.1 14 Sudeste 30 Sudeste 0 -- -- --
2019-08-04 17:00:00 29.8 8 Este 18 Este 0 -- -- --
2019-08-04 16:00:00 30.4 9 Nordeste 19 Nordeste 0 -- -- --
2019-08-04 15:00:00 29.7 10 Nordeste 18 Este 0 -- -- --
2019-08-04 14:00:00 29.9 9 Este 21 Sudeste 0 -- -- --
2019-08-04 13:00:00 29 10 Este 21 Este 0 -- -- --
2019-08-04 12:00:00 28.3 9 Este 17 Este 0 -- -- --
2019-08-04 11:00:00 27.4 8 Este 15 Este 0 -- -- --
2019-08-04 10:00:00 26.7 4 Norte 10 Norte 0 -- -- --
2019-08-04 09:00:00 26 0 Calma 6 Sur 0 -- -- --
2019-08-04 08:00:00 22.1 4 Oeste 6 Noroeste 0 -- -- --
2019-08-04 07:00:00 21.8 0 Calma 7 Noroeste 0 -- -- --
2019-08-04 06:00:00 22.3 3 Noroeste 6 Noroeste 0 -- -- --
2019-08-04 05:00:00 23 3 Oeste 10 Noroeste 0 -- -- --
2019-08-04 04:00:00 23.6 5 Oeste 13 Noroeste 0 -- -- --
2019-08-04 03:00:00 23.9 6 Oeste 13 Oeste 0 -- -- --
2019-08-04 02:00:00 24.1 4 Noroeste 9 Noroeste 0 -- -- --
2019-08-04 01:00:00 23.4 0 Calma 8 Sur 0 -- -- --
2019-08-04 00:00:00 24.6 4 Sur 9 Sur 0 -- -- --
2019-08-03 23:00:00 26.4 4 Sur 9 Sur 0 -- -- --
2019-08-03 22:00:00 27.5 4 Sudeste 15 Sudeste 0 -- -- --
2019-08-03 21:00:00 28.6 10 Sudeste 28 Sudeste 0 -- -- --
2019-08-03 20:00:00 29 12 Sudeste 28 Sudeste 0 -- -- --
2019-08-03 19:00:00 28 16 Este 37 Este 0 -- -- --
2019-08-03 18:00:00 28.1 18 Este 35 Este 0 -- -- --
2019-08-03 17:00:00 28.5 19 Este 37 Este 0 -- -- --
2019-08-03 16:00:00 28 17 Este 28 Sudeste 0 -- -- --
2019-08-03 15:00:00 28.3 11 Este 20 Este 0 -- -- --
2019-08-03 14:00:00 28.1 8 Este 16 Nordeste 0 -- -- --
2019-08-03 13:00:00 27.2 9 Nordeste 14 Nordeste 0 -- -- --
2019-08-03 12:00:00 27.1 8 Nordeste 13 Nordeste 0 -- -- --
2019-08-03 11:00:00 27.3 7 Nordeste 14 Norte 0 -- -- --
2019-08-03 10:00:00 26.4 5 Nordeste 10 Nordeste 0 -- -- --
2019-08-03 09:00:00 25.1 6 Noroeste 10 Oeste 0 -- -- --
2019-08-03 08:00:00 22.9 4 Noroeste 6 Noroeste 0 -- -- --
2019-08-03 07:00:00 22.6 3 Oeste 7 Noroeste 0 -- -- --
2019-08-03 06:00:00 22.7 4 Noroeste 9 Noroeste 0 -- -- --
2019-08-03 05:00:00 22.2 4 Oeste 7 Oeste 0 -- -- --
2019-08-03 04:00:00 22.2 5 Noroeste 9 Noroeste 0 -- -- --
2019-08-03 03:00:00 22.5 4 Oeste 7 Oeste 0 -- -- --
2019-08-03 02:00:00 22.6 4 Oeste 6 Oeste 0 -- -- --
2019-08-03 01:00:00 23.3 0 Calma 2 Sudoeste 0 -- -- --
2019-08-03 00:00:00 23.9 2 Oeste 5 Oeste 0 -- -- --
2019-08-02 23:00:00 25.1 0 Calma 7 Norte 0 -- -- --
2019-08-02 22:00:00 26.1 3 Nordeste 10 Nordeste 0 -- -- --
2019-08-02 21:00:00 26.6 5 Nordeste 12 Nordeste 0 -- -- --
2019-08-02 20:00:00 27.1 7 Nordeste 12 Nordeste 0 -- -- --
2019-08-02 19:00:00 27.2 7 Nordeste 15 Este 0 -- -- --
2019-08-02 18:00:00 27.4 9 Este 15 Este 0 -- -- --
2019-08-02 17:00:00 27.6 9 Nordeste 17 Este 0 -- -- --
2019-08-02 16:00:00 27.4 9 Nordeste 16 Este 0 -- -- --
2019-08-02 15:00:00 27.5 10 Nordeste 16 Nordeste 0 -- -- --
2019-08-02 14:00:00 27.7 9 Nordeste 17 Nordeste 0 -- -- --
2019-08-02 13:00:00 27.6 8 Nordeste 17 Nordeste 0 -- -- --
2019-08-02 12:00:00 26.9 9 Norte 15 Norte 0 -- -- --
2019-08-02 11:00:00 26.4 9 Norte 14 Norte 0 -- -- --
2019-08-02 10:00:00 26.7 6 Norte 11 Norte 0 -- -- --
2019-08-02 09:00:00 25.3 5 Oeste 10 Oeste 0 -- -- --
2019-08-02 08:00:00 22 5 Oeste 12 Oeste 0 -- -- --
2019-08-02 07:00:00 21 5 Oeste 10 Noroeste 0 -- -- --
2019-08-02 06:00:00 21.3 2 Oeste 8 Oeste 0 -- -- --
2019-08-02 05:00:00 21.2 3 Oeste 8 Oeste 0 -- -- --
2019-08-02 04:00:00 21.4 4 Noroeste 8 Noroeste 0 -- -- --
2019-08-02 03:00:00 21.6 0 Calma 5 Oeste 0 -- -- --
2019-08-02 02:00:00 22 0 Calma 8 Noroeste 0 -- -- --
2019-08-02 01:00:00 22.6 0 Calma 4 Oeste 0 -- -- --
2019-08-02 00:00:00 23.2 0 Calma -- -- 0 -- -- --
2019-08-01 23:00:00 24.1 0 Calma 5 Norte 0 -- -- --
2019-08-01 22:00:00 25.3 4 Norte 7 Norte 0 -- -- --
2019-08-01 21:00:00 26 0 Calma 7 Nordeste 0 -- -- --
2019-08-01 20:00:00 26.4 4 Nordeste 9 Este 0 -- -- --
2019-08-01 19:00:00 26.5 6 Nordeste 12 Nordeste 0 -- -- --
2019-08-01 18:00:00 27.2 6 Norte 11 Norte 0 -- -- --
2019-08-01 17:00:00 26.8 4 Nordeste 15 Nordeste 0 -- -- --
2019-08-01 16:00:00 26.4 9 Nordeste 17 Nordeste 0 -- -- --
2019-08-01 15:00:00 27.4 8 Nordeste 16 Nordeste 0 -- -- --
2019-08-01 14:00:00 27.2 10 Nordeste 16 Nordeste 0 -- -- --
2019-08-01 13:00:00 -- 8 Norte 19 Norte 0 -- -- --
2019-08-01 12:00:00 26.4 11 Norte 21 Norte 0 -- -- --
2019-08-01 11:00:00 25.9 12 Norte 20 Norte 0 -- -- --
2019-08-01 10:00:00 24.9 7 Norte 17 Norte 0 -- -- --
2019-08-01 09:00:00 23.9 6 Noroeste 13 Noroeste 0 -- -- --
2019-08-01 08:00:00 23.5 6 Noroeste 12 Oeste 0 -- -- --
2019-08-01 07:00:00 24.1 6 Noroeste 20 Norte 0 -- -- --
2019-08-01 06:00:00 24.6 9 Norte 17 Norte 0 -- -- --
2019-08-01 05:00:00 24.5 6 Norte 18 Noroeste 0 -- -- --
2019-08-01 04:00:00 24.5 9 Norte 19 Norte 0 -- -- --
2019-08-01 03:00:00 24.3 6 Norte 15 Norte 0 -- -- --
2019-08-01 02:00:00 23.4 2 Noroeste 17 Norte 0 -- -- --
2019-08-01 01:00:00 23.2 6 Noroeste 11 Noroeste 0 -- -- --
2019-08-01 00:00:00 23.7 3 Oeste 7 Noroeste 0 -- -- --
2019-07-31 23:00:00 24.7 3 Noroeste 13 Norte 0 -- -- --
2019-07-31 22:00:00 25.1 5 Norte 14 Norte 0 -- -- --
2019-07-31 21:00:00 25.5 8 Norte 17 Norte 0 -- -- --
2019-07-31 20:00:00 26.3 7 Norte 15 Nordeste 0 -- -- --
2019-07-31 19:00:00 26.8 6 Nordeste 19 Nordeste 0 -- -- --
2019-07-31 18:00:00 26.5 9 Nordeste 20 Nordeste 0 -- -- --
2019-07-31 17:00:00 27.1 8 Este 28 Este 0 -- -- --
2019-07-31 16:00:00 26.8 11 Este 29 Este 0 -- -- --
2019-07-31 15:00:00 27.2 9 Este 18 Este 0 -- -- --
2019-07-31 14:00:00 27.5 8 Este 22 Este 0 -- -- --
2019-07-31 13:00:00 27.6 13 Este 21 Este 0 -- -- --
2019-07-31 12:00:00 27.6 10 Este 19 Sudeste 0 -- -- --
2019-07-31 11:00:00 27.5 10 Este 21 Este 0 -- -- --
2019-07-31 10:00:00 25.8 7 Nordeste 12 Nordeste 0 -- -- --
2019-07-31 09:00:00 25.8 8 Nordeste 19 Este 0 -- -- --
2019-07-31 08:00:00 25.4 9 Nordeste 19 Nordeste 0 -- -- --
2019-07-31 07:00:00 25.2 8 Nordeste 17 Nordeste 0 -- -- --
2019-07-31 06:00:00 25.1 4 Nordeste 15 Nordeste 0 -- -- --
2019-07-31 05:00:00 25.2 9 Nordeste 16 Nordeste 0 -- -- --
2019-07-31 04:00:00 25.5 6 Nordeste 13 Nordeste 0 -- -- --
2019-07-31 03:00:00 25.3 6 Norte 14 Norte 0 -- -- --
2019-07-31 02:00:00 25.4 5 Nordeste 11 Nordeste 0 -- -- --
2019-07-31 01:00:00 25.5 6 Nordeste 13 Norte 0 -- -- --
2019-07-31 00:00:00 25.4 7 Norte 15 Nordeste 0 -- -- --
2019-07-30 23:00:00 25.9 7 Nordeste 13 Nordeste 0 -- -- --
2019-07-30 22:00:00 26.4 6 Este 18 Este 0 -- -- --
2019-07-30 21:00:00 26.5 10 Este 22 Este 0 -- -- --
2019-07-30 20:00:00 27 10 Este 21 Este 0 -- -- --
2019-07-30 19:00:00 27.4 10 Este 21 Sudeste 0 -- -- --
2019-07-30 18:00:00 27.9 13 Este 23 Este 0 -- -- --
2019-07-30 17:00:00 28 6 Nordeste 16 Nordeste 0 -- -- --
2019-07-30 16:00:00 28.5 8 Nordeste 25 Norte 0 -- -- --
2019-07-30 15:00:00 28.1 15 Norte 28 Norte 0 -- -- --
2019-07-30 14:00:00 28.3 16 Norte 32 Norte 0 -- -- --
2019-07-30 13:00:00 28.5 18 Norte 35 Norte 0 -- -- --
2019-07-30 12:00:00 28.4 15 Norte 36 Norte 0 -- -- --
2019-07-30 11:00:00 27.9 14 Noroeste 27 Norte 0 -- -- --
2019-07-30 10:00:00 27.3 10 Noroeste 23 Noroeste 0 -- -- --
2019-07-30 09:00:00 25.8 7 Noroeste 12 Noroeste 0 -- -- --
2019-07-30 08:00:00 22.7 4 Oeste 6 Oeste 0 -- -- --
2019-07-30 07:00:00 22.4 0 Calma 5 Sur 0 -- -- --
2019-07-30 06:00:00 23.6 4 Sur 6 Oeste 0 -- -- --
2019-07-30 05:00:00 24 4 Noroeste 7 Noroeste 0 -- -- --
2019-07-30 04:00:00 24.8 2 Noroeste 7 Oeste 0 -- -- --
2019-07-30 03:00:00 25.9 4 Noroeste 23 Norte 0 -- -- --
2019-07-30 02:00:00 26.8 9 Norte 16 Norte 0 -- -- --
2019-07-30 01:00:00 27.2 8 Norte 19 Nordeste 0 -- -- --
2019-07-30 00:00:00 27.9 3 Sudeste 10 Sur 0 -- -- --
2019-07-29 23:00:00 28.3 5 Sur 15 Sur 0 -- -- --
2019-07-29 22:00:00 29.7 8 Sur 24 Sur 0 -- -- --
2019-07-29 21:00:00 31 13 Sur 28 Sudeste 0 -- -- --
2019-07-29 20:00:00 32.6 16 Sudeste 30 Sudeste 0 -- -- --
2019-07-29 19:00:00 -- -- -- -- -- -- -- -- --
2019-07-29 18:00:00 34.5 14 Sur 30 Sudeste 0 -- -- --
2019-07-29 17:00:00 33.3 15 Sudeste -- -- -- -- -- --
2019-07-29 16:00:00 -- -- -- -- -- -- -- -- --
2019-07-29 15:00:00 31.7 9 Este 24 Este 0 -- -- --
2019-07-29 14:00:00 29.2 9 Nordeste 15 Nordeste 0 -- -- --
2019-07-29 13:00:00 28.2 9 Nordeste 14 Nordeste 0 -- -- --
2019-07-29 12:00:00 27.7 8 Nordeste 12 Este 0 -- -- --
2019-07-29 11:00:00 26.9 7 Nordeste 12 Nordeste 0 -- -- --
2019-07-29 10:00:00 27 5 Este 9 Sudeste 0 -- -- --
2019-07-29 09:00:00 25.6 2 Sudeste 5 Sur 0 -- -- --
2019-07-29 08:00:00 22.3 0 Calma 5 Sur 0 -- -- --
2019-07-29 07:00:00 21.3 0 Calma 6 Oeste 0 -- -- --
2019-07-29 06:00:00 22.1 0 Calma 7 Oeste 0 -- -- --
2019-07-29 05:00:00 22.6 3 Oeste 8 Oeste 0 -- -- --
2019-07-29 04:00:00 23.1 5 Oeste 12 Noroeste 0 -- -- --
2019-07-29 03:00:00 23.5 7 Noroeste 29 Noroeste 0 -- -- --
2019-07-29 02:00:00 24.3 4 Oeste 9 Noroeste 0 -- -- --
2019-07-29 01:00:00 25.3 5 Noroeste -- -- -- -- -- --
2019-07-29 00:00:00 25.3 3 Oeste 9 Oeste 0 -- -- --
2019-07-28 23:00:00 -- 0 Calma -- -- -- -- -- --
2019-07-28 22:00:00 27.6 5 Sur 21 Sur 0 -- -- --
2019-07-28 21:00:00 29 10 Sur 22 Sur 0 -- -- --
2019-07-28 20:00:00 29.9 11 Sur 32 Sur 0 -- -- --
2019-07-28 19:00:00 -- 14 Sur -- -- -- -- -- --
2019-07-28 18:00:00 30.5 15 Sudeste 30 Sur 0 -- -- --
2019-07-28 17:00:00 30.8 12 Sudeste 36 Este 0 -- -- --
2019-07-28 16:00:00 27.1 21 Este 35 Este 0 -- -- --
2019-07-28 15:00:00 27.3 14 Este 26 Este 0 -- -- --
2019-07-28 14:00:00 27.4 11 Este 35 Sudeste 0 -- -- --
2019-07-28 13:00:00 27.1 9 Este 23 Nordeste 0 -- -- --
2019-07-28 12:00:00 -- 11 Nordeste 21 Nordeste 0 -- -- --
2019-07-28 11:00:00 26.9 9 Norte 45 Norte 0 -- -- --
2019-07-28 10:00:00 26.6 7 Norte -- -- -- -- -- --
2019-07-28 09:00:00 25.5 6 Noroeste 17 Norte 0 -- -- --
2019-07-28 08:00:00 -- 4 Noroeste -- -- -- -- -- --
2019-07-28 07:00:00 -- 7 Noroeste -- -- -- -- -- --
2019-07-28 06:00:00 -- -- -- -- -- -- -- -- --
2019-07-28 05:00:00 23.1 0 Calma 10 Sur 0 -- -- --
2019-07-28 04:00:00 24.6 4 Noroeste 12 Nordeste 0 -- -- --
2019-07-28 03:00:00 26.1 6 Nordeste 19 Norte 0 -- -- --
2019-07-28 02:00:00 26.7 8 Nordeste 17 Nordeste 0 -- -- --
2019-07-28 01:00:00 26.6 5 Norte 17 Noroeste 0 -- -- --
2019-07-28 00:00:00 26.9 8 Noroeste 32 Norte 0 -- -- --
2019-07-27 23:00:00 27 16 Norte 33 Noroeste 0 -- -- --
2019-07-26 12:00:00 27.9 7 Nordeste 12 Nordeste 0 -- -- --
2019-07-26 11:00:00 27.4 5 Este 10 Este 0 -- -- --
2019-07-26 10:00:00 27.6 7 Este 10 Este 0 -- -- --
2019-07-26 09:00:00 27 0 Calma 4 Noroeste 0 -- -- --
2019-07-26 08:00:00 22.5 0 Calma 4 Sur 0 -- -- --
2019-07-26 07:00:00 21.1 0 Calma 4 Sur 0 -- -- --
2019-07-26 06:00:00 21.7 0 Calma 4 Sur 0 -- -- --
2019-07-26 05:00:00 22.9 0 Calma 8 Oeste 0 -- -- --
2019-07-26 04:00:00 23.4 5 Oeste 10 Noroeste 0 -- -- --
2019-07-26 03:00:00 24.3 4 Noroeste 13 Oeste 0 -- -- --
2019-07-26 02:00:00 24.1 8 Oeste 15 Noroeste 0 -- -- --
2019-07-26 01:00:00 24.5 0 Calma 21 Sudeste 0 -- -- --
2019-07-26 00:00:00 28.4 10 Sudeste 24 Sudeste 0 -- -- --